User: anonymous   Login
Location: C.E.K. Mees Observatory
(42.7003°N, 77.4088°W)
Time: 02:10:59
(UTC-04:00)
Language:

Envisat - Orbit

View from above orbital plane
View from above orbital plane
View from above satellite
View from above satellite

Ground track
Ground track

The orbit data is extracted from the following two-line orbital elements,

1 27386U 02009A   17295.79867714  .00000004  00000-0  14943-4 0  9999
2 27386  98.2180 335.6554 0001267  87.2003 272.9320 14.37906067819414
Epoch (UTC): 22 October 2017 19:10:05
Eccentricity: 0.0001267
inclination: 98.2180°
perigee height: 764 km
apogee height: 766 km
right ascension of ascending node: 335.6554°
argument of perigee: 87.2003°
revolutions per day: 14.37906067
mean anomaly at epoch: 272.9320°
orbit number at epoch: 81941

The dashed part of the orbit path shows where the satellite is in the earth's shadow,  

DLR